Other Public Products
Issued by NWS Grand Forks, ND

Home | Current Version | Previous Version | Text Only | Print | Product List | Glossary Off
Versions: 1 2 3 4 5 6 7 8 9 10 11 12 13 14 15 16 17 18 19 20 21 22 23 24 25 26 27 28 29 30 31 32 33 34 35 36 37 38 39 40 41 42 43 44 45 46 47 48 49 50

000
FPUS83 KFGF 191531
OPUFGF
PRAIRIE TO PINES WEATHER ROUNDUP
NATIONAL WEATHER SERVICE EASTERN NORTH DAKOTA/GRAND FORKS ND
900 AM CST THU JAN 19 2017

 **SATELLITE DATA USED TO AUGMENT SKY COVER AT AUTOMATED STATIONS**
 *****  WEATHER ACROSS EASTERN NORTH DAKOTA  *****

CITY           SKY/WX    TMP DP  RH WIND       PRES   REMARKS
GRAND FORKS    FOG       23  20  88 S18       29.59S VSB 3/4 WCI   9
GRAND FORKS AF FOG       23  21  93 S12       29.58R VSB 3/4 WCI  12
GRAND CITY NWS NOT AVBL
BUXTON           N/A    N/A N/A N/A CALM        N/A
DEVILS LAKE    FAIR      18  14  84 SE5       29.52F WCI  11
FARGO          FOG       28  28 100 S7        29.62R VSB 3/4 WCI  21
WAHPETON ARPT  FAIR      28  27  93 SE7       29.62S WCI  21
$$

 *****  WEATHER ACROSS CENTRAL AND WESTERN NORTH DAKOTA  *****

CITY           SKY/WX    TMP DP  RH WIND       PRES   REMARKS
JAMESTOWN      FAIR      16  14  92 S6        29.54F WCI   7
BISMARCK       FAIR      11   8  88 NE7       29.53F WCI   0
MINOT          FAIR      27  21  78 SW10      29.47F WCI  17
MINOT AFB      FAIR      24  19  83 SW9       29.47S WCI  14
GARRISON         N/A     14  11  87 N6        29.49F WCI   5
WILLISTON      FAIR      16  13  88 CALM      29.50R FOG
DICKINSON      FAIR      20  14  77 SW5       29.47S WCI  13
HETTINGER      FAIR      13   8  81 W5        29.50F WCI   5
$$

 *****  OTHER OBSERVATIONS NORTHEAST NORTH DAKOTA  *****

CITY           SKY/WX    TMP DP  RH WIND       PRES   REMARKS
WALHALLA       NOT AVBL
LANGDON        NOT AVBL
CAVALIER         N/A     23  18  80 S8        29.53F WCI  14
GRAFTON        FOG       19  19 100 S16       29.58F VSB 1   WCI   5
CANDO          NOT AVBL
FORT TOTTEN      N/A     25  19  76 SE6       29.95S WCI  18
ROLLA            N/A    N/A N/A N/A MISG        N/A
RUGBY            N/A     18  16  93 CALM      29.49S
 ***** THE ABOVE OBSERVATIONS ARE NON NWS ARE NOT QUALITY
        CONTROLLED AND MAY MIS-REPORT RAIN FOR SNOW...
$$

 *****  OTHER OBSERVATIONS SOUTHEAST NORTH DAKOTA *****

CITY           SKY/WX    TMP DP  RH WIND       PRES   REMARKS
COOPERSTOWN    FAIR      19  19 100 S13       29.56S WCI   7
VALLEY CITY    FAIR      21  21 100 S13       29.58S WCI   9
OAKES          NOT AVBL
GWINNER        FAIR      23  23 100 S3        29.60R
SHEYENNE NWR     N/A     16  13  86 CALM      29.95S
BUFFALO          N/A     24  23  95 E6          N/A  WCI  17
WYNDMERE         N/A     19  19 100 N2          N/A
 ***** THE ABOVE OBSERVATIONS ARE NON NWS ARE NOT QUALITY
       CONTROLLED AND MAY MIS-REPORT RAIN FOR SNOW...
$$

  *****  WEATHER ACROSS NORTHERN MINNESOTA  *****

CITY           SKY/WX    TMP DP  RH WIND       PRES   REMARKS
FLAG ISLAND    FAIR      23  19  86 S13       29.58F WCI  11
WARROAD        FAIR      27  21  80 S3        29.60S
ROSEAU         FAIR      28  23  80 S13       29.58F WCI  18
HALLOCK        FOG       25  25 100 S17       29.56R VSB 1   WCI  11
THF RVR FALLS  SNOW      28  27  96 S10       29.62R VSB 1/4 WCI  19
HALSTAD          N/A     29  28  99 S14         N/A  WCI  18
FOSSTON        FAIR      25  25 100 S5        29.63R FOG     WCI  19
BAUDETTE       FAIR      27  23  85 CALM      29.62R
WASKISH        CLOUDY    30  28  93 S10       29.64S FOG     WCI  21
CROOKSTON      FOG       30  30 100 S14       29.62S VSB 1/4 WCI  20
$$
  *****  WEATHER ACROSS CENTRAL AND WEST MINNESOTA  *****

CITY           SKY/WX    TMP DP  RH WIND       PRES   REMARKS
BEMIDJI        FOG       30  30 100 S7        29.65S VSB 1/2 WCI  23
PARK RAPIDS    FOG       33  30  88 S12       29.67S VSB 1/4 WCI  24
WADENA         CLOUDY    32  32 100 S10       29.67S FOG     WCI  24
DETROIT LAKES  FOG       34  34 100 S12       29.65S VSB 3/4
MOORHEAD       FAIR      28  27  93 S8        29.64R WCI  20
FERGUS FALLS   FAIR      32  32 100 S14       29.68S WCI  22
ELBOW LAKE     LGT SNOW  32  31  99 SE17      29.65F WCI  20
MORRIS MN      FAIR      30  30 100 SE10      29.67F WCI  21
STAPLES        MOCLDY    34  34 100 SE9       29.69F FOG
WHEATON        FAIR      34  34 100 SE16      29.66S WCI  23
$$
  *****  WEATHER ELSEWHERE ACROSS MINNESOTA  *****

CITY           SKY/WX    TMP DP  RH WIND       PRES   REMARKS
DULUTH         FOG       34  34 100 SW13G20   29.76S VSB 1/4 WCI  25
INTRNTL FALLS  FOG       28  26  92 S7        29.65F VSB 1   WCI  21
ELY            FOG       30  30 100 S5        29.73S VSB 3/4
CLOQUET        FOG       34  32  93 S9        29.76S VSB 1
BRAINERD       CLOUDY    33  33 100 S12       29.72F FOG     WCI  24
HIBBING        FOG       31  31 100 S6        29.74S VSB 1/4
ALEXANDRIA     FAIR      32  31  96 S12       29.69F WCI  23
SAINT CLOUD    FAIR      30  30 100 SE7       29.76S FOG     WCI  23
MINNEAPOLIS    FAIR      33  29  85 SE7       29.81F
$$

  *****  WEATHER ACROSS SOUTH DAKOTA  *****

CITY           SKY/WX    TMP DP  RH WIND       PRES   REMARKS
SIOUX FALLS    MOCLDY    36  34  92 S12       29.71S
BROOKINGS      FAIR      32  31  96 S8        29.68F WCI  25
WATERTOWN      FAIR      30  29  96 S16       29.63F WCI  19
HURON          FAIR      33  33 100 SE15      29.61F WCI  23
SISSETON         N/A     27  27 100 SE12      29.61F WCI  17
ABERDEEN       FOG       28  25  88 S13       29.59S VSB 3/4 WCI  17
MITCHELL       FOG       34  34 100 S17       29.66F VSB 1/4 WCI  23
PIERRE         FAIR      13  11  92 W5        29.55S FOG     WCI   5
MOBRIDGE         N/A     14   9  80 CALM      29.51R
RAPID CITY     FAIR      28  16  60 NW6       29.49F WCI  22
$$

  *****  SOME WEATHER IN NEARBY STATES *****

CITY           SKY/WX    TMP DP  RH WIND       PRES   REMARKS
GLASGOW MT     FAIR      22  19  89 E7        29.44F WCI  13
GREAT FALLS MT FAIR      40  26  57 S17       29.45S
CHEYENNE WY    FAIR      37  13  37 W10       29.59F
SCOTTSBLUFF NE FAIR      25  18  74 E5        29.59S WCI  19
OMAHA NE       CLOUDY    36  32  85 S5        29.79S FOG
DES MOINES IA  CLOUDY    33  32  96 E6        29.86S FOG
DAVENPORT IA   FAIR      32  31  96 E7        29.91F FOG
CHICAGO IL     CLOUDY    36  34  92 S5        29.99F FOG
EAU CLAIRE WI  FOG       30  30 100 NE3       29.87S VSB 1
LA CROSSE WI   CLOUDY    35  32  88 S12       29.91S FOG
$$

  *****  SOME NATIONAL WEATHER *****

CITY           SKY/WX    TMP DP  RH WIND       PRES   REMARKS
LA GUARDIA NY  FAIR      45  36  70 NW10      30.06R
RALEIGH NC     PTSUNNY   50  38  63 E5        30.13S
ATLANTA GA     PTSUNNY   63  51  65 SE5       30.06R
NEW ORLEANS LA CLOUDY    72  70  93 S9        29.96R
OKLAHOMA CITY  FOG       46  45  96 SE15      29.73S VSB 3/4
ALBUQUERQUE NM FAIR      32  28  85 SE5       29.93S
SALT LAKE CITY LGT SNOW  27  25  92 N6        29.78S FOG     WCI  20
LOS ANGELES CA MOCLDY    57  55  93 SW12      29.92S
BOISE ID       CLOUDY    38  33  82 SE12      29.64R
SEATTLE WA     CLOUDY    45  40  82 S9        29.49R
$$

*** WEATHER ACROSS MANITOBA...SASKATCHEWAN AND ONTARIO ***
                ***ONTARIO***

CITY           SKY/WX    TMP DP  RH WIND       PRES   REMARKS
GERALDTON      CLOUDY    25  23  93 SE5       29.78F WCI  19
THUNDER BAY    CLOUDY    23  23 100 CALM      29.82R FOG
SIOUX LOOKOUT  PTCLDY    27  23  86 S8        29.61F WCI  18
TORONTO        CLOUDY    36  34  93 SW6       30.07R
BIG TROUT LK   PTCLDY    30  28  93 S16G23    29.49F WCI  19
PICKLE LAKE    MOCLDY    30  25  80 S12       29.58F WCI  21
DRYDEN         CLEAR     27  23  86 S8        29.61S WCI  18
KENORA         PTCLDY    28  23  80 S13       29.57  WCI  18
$$
                *** MANITOBA***

CITY           SKY/WX    TMP DP  RH WIND       PRES   REMARKS
BRANDON        MOCLDY    18  16  93 NW6       29.46S WCI   9
DAUPHIN        CLEAR     36  28  75 SW8       29.40R
ISLAND LAKE    MOCLDY    27  25  93 SE5       29.38R WCI  21
PILOT MOUND      N/A     19  16  86 S9          N/A  WCI   9
THE PAS        PTCLDY    25  23  93 VRB2      29.32R
THOMPSON       CLOUDY    23  23 100 CALM      29.31R
WINNIPEG       PTCLDY    25  19  80 S18       29.50S WCI  11
LYNN LAKE      CLOUDY    28  28 100 SW7       29.30R WCI  21
CHURCHILL      LGT SNOW  19  18  93 SE17      29.48F DRFTSNOWWCI   4
GILLAM         CLOUDY    30  28  93 SE6       29.35F WCI  24
$$
                ***SASKATCHEWAN***

CITY           SKY/WX    TMP DP  RH WIND       PRES   REMARKS
ESTEVAN        MOCLDY    23  19  86 S3        29.46R
KINDERSLEY     CLOUDY    34  30  86 S13       29.31R WCI  25
LLOYDMINSTER   MOCLDY    27  23  86 SE3       29.25F
PRINCE ALBERT  CLOUDY    16  14  93 CALM      29.33R FOG
REGINA         MOCLDY    23  21  93 SE5       29.41S WCI  17
YORKTON        CLEAR     28  27  93 S10       29.39S WCC1F1C2F2C3F3C4F4C5F5C6F6C7F7C8F8C9F9CaFaCbFbCcFcCdFdCe!



USA.gov is the U.S. government's official web portal to all federal, state and local government web resources and services.